Latest Weather Observations for Sheoaks

IDV60901

Issued at 6:05 pm EST Friday 18 April 2014 (issued every 10 minutes, with the page automatically refreshed every 10 minutes)

About weather observations | Map of Melbourne area stations | Latest observations for Melbourne area | Other Formats
Station Details ID: 087168 Name: SHEOAKS Lat: -37.91 Lon: 144.13 Height: 236.7 m
Data from the previous 72 hours. | See also: Recent months at Sheoaks
Date/Time
EST
Tmp

°C
App
Tmp
°C
Dew
Point
°C
Rel
Hum
%
Delta-T

°C
Wind Press
QNH
hPa
Press
MSL
hPa
Rain
since
9 am
mm
Dir
 
Spd
km/h
Gust
km/h
Spd
kts
Gust
kts
18/06:00pm 12.1 8.2 5.5 64 3.1 SW 15 28 8 15 1019.4 1019.3 5.0
18/05:30pm 13.3 9.3 5.0 57 3.9 WSW 15 33 8 18 1019.2 - 5.0
18/05:00pm 14.4 11.0 5.7 56 4.2 WSW 13 24 7 13 1018.7 1018.5 5.0
18/04:30pm 13.9 9.9 6.5 61 3.6 W 17 26 9 14 1018.6 - 5.0
18/04:00pm 14.2 10.1 6.1 58 3.9 WSW 17 30 9 16 1018.3 1018.1 5.0
18/03:30pm 14.6 10.0 6.4 58 4.0 WSW 20 33 11 18 1018.1 - 5.0
18/03:00pm 14.8 10.3 5.9 55 4.3 SW 19 30 10 16 1017.8 1017.6 5.0
18/02:30pm 15.2 10.3 7.0 58 4.1 WSW 22 44 12 24 1017.5 - 5.0
18/02:00pm 14.8 11.0 5.6 54 4.4 WSW 15 28 8 15 1017.3 1017.1 5.0
18/01:30pm 15.8 10.4 4.5 47 5.4 SW 22 33 12 18 1017.3 - 5.0
18/01:00pm 14.9 10.8 7.9 63 3.5 WSW 19 33 10 18 1017.1 1016.9 5.0
18/12:30pm 13.9 10.5 10.7 81 1.7 W 19 30 10 16 1017.2 - 5.0
18/12:00pm 13.9 11.6 10.3 79 1.9 WSW 13 30 7 16 1017.1 1016.9 5.0
18/11:30am 13.5 11.1 11.4 87 1.1 WSW 15 32 8 17 1017.2 - 5.0
18/11:00am 12.6 9.6 10.8 89 0.9 W 17 32 9 17 1017.0 1016.8 5.0
18/10:30am 12.7 9.6 12.1 96 0.3 W 20 33 11 18 1016.7 - 4.8
18/10:00am 12.7 9.1 11.9 95 0.4 W 22 33 12 18 1016.5 1016.3 4.4
18/09:30am 14.3 10.1 12.3 88 1.1 W 26 39 14 21 1016.1 - 0.0
18/09:00am 15.6 12.6 10.8 73 2.6 NW 17 28 9 15 1015.5 1015.4 0.0
18/08:30am 14.7 12.3 9.9 73 2.5 NW 13 20 7 11 1015.3 - 0.0
18/08:00am 14.2 11.5 10.4 78 2.0 WNW 15 22 8 12 1015.2 1015.0 0.0
18/07:30am 14.8 12.3 9.6 71 2.7 NW 13 19 7 10 1015.0 - 0.0
18/07:00am 14.7 12.5 9.3 70 2.8 NW 11 19 6 10 1014.8 1014.6 0.0
18/06:30am 13.3 11.4 9.0 75 2.2 NNW 9 11 5 6 1014.8 - 0.0
18/06:00am 13.2 10.5 8.9 75 2.2 NNW 13 20 7 11 1014.8 1014.6 0.0
18/05:30am 12.7 10.1 9.2 79 1.8 NNW 13 19 7 10 1014.8 - 0.0
18/05:00am 12.5 9.9 9.5 82 1.5 NNW 13 19 7 10 1015.1 1014.9 0.0
18/04:30am 12.3 10.1 9.3 82 1.5 NNW 11 17 6 9 1015.5 - 0.0
18/04:00am 12.0 9.7 9.0 82 1.5 NW 11 17 6 9 1015.7 1015.6 0.0
18/03:30am 11.2 8.9 8.9 86 1.2 NNW 11 17 6 9 1016.0 - 0.0
18/03:00am 10.9 8.6 9.0 88 1.0 NNW 11 17 6 9 1016.0 1015.8 0.0
18/02:30am 10.2 8.3 9.1 93 0.6 NNW 9 13 5 7 1016.3 - 0.0
18/02:00am 10.0 8.1 9.1 94 0.5 NNW 9 13 5 7 1016.5 1016.3 0.0
18/01:30am 10.0 8.1 9.1 94 0.5 N 9 11 5 6 1016.7 - 0.0
18/01:00am 10.7 9.5 9.6 93 0.6 NNW 6 9 3 5 1017.3 1017.1 0.0
18/12:30am 11.4 10.1 10.0 91 0.7 NW 7 9 4 5 1017.5 - 0.0
18/12:00am 10.9 9.5 9.7 92 0.6 NNW 7 13 4 7 1017.8 1017.6 0.0
 
Date/Time
EST
Tmp

°C
App
Tmp
°C
Dew
Point
°C
Rel
Hum
%
Delta-T

°C
Wind Press
QNH
hPa
Press
MSL
hPa
Rain
since
9 am
mm
Dir
 
Spd
km/h
Gust
km/h
Spd
kts
Gust
kts
17/11:30pm 11.0 9.7 9.8 92 0.6 N 7 9 4 5 1017.9 - 0.0
17/11:00pm 11.0 9.6 9.4 90 0.8 N 7 9 4 5 1018.3 1018.1 0.0
17/10:30pm 11.4 9.9 9.1 86 1.2 N 7 9 4 5 1018.6 - 0.0
17/10:00pm 12.5 11.8 10.0 85 1.3 N 4 6 2 3 1018.9 1018.8 0.0
17/09:30pm 13.0 11.9 10.0 82 1.6 NW 6 9 3 5 1018.8 - 0.0
17/09:00pm 13.9 12.6 9.9 77 2.1 NW 7 13 4 7 1018.6 1018.4 0.0
17/08:30pm 14.9 12.8 9.9 72 2.6 WNW 11 15 6 8 1018.5 - 0.0
17/08:00pm 14.5 12.7 7.8 64 3.4 N 7 9 4 5 1018.2 1018.0 0.0
17/07:30pm 15.6 13.8 7.9 60 3.9 N 7 11 4 6 1018.2 - 0.0
17/07:00pm 17.1 15.3 8.0 55 4.7 NNW 7 11 4 6 1018.1 1017.9 0.0
17/06:30pm 18.0 16.3 7.7 51 5.3 NW 6 9 3 5 1018.1 - 0.0
17/06:00pm 19.1 17.8 7.5 47 6.0 NNW 4 6 2 3 1018.1 1017.9 0.0
17/05:30pm 20.2 18.8 7.2 43 6.7 NNW 4 7 2 4 1018.1 - 0.0
17/05:00pm 21.2 18.8 7.1 40 7.3 NW 9 17 5 9 1018.0 1017.8 0.0
17/04:30pm 22.3 19.5 6.9 37 8.0 NNW 11 19 6 10 1018.0 - 0.0
17/04:00pm 22.3 19.0 6.5 36 8.1 NNW 13 19 7 10 1018.2 1018.0 0.0
17/03:30pm 22.4 19.6 7.0 37 8.0 NNW 11 17 6 9 1018.4 - 0.0
17/03:00pm 22.2 19.1 7.2 38 7.8 NNW 13 22 7 12 1018.5 1018.3 0.0
17/02:30pm 22.7 20.0 7.3 37 8.1 NW 11 19 6 10 1018.7 - 0.0
17/02:00pm 22.3 19.5 6.9 37 8.0 WNW 11 19 6 10 1018.9 1018.8 0.0
17/01:30pm 22.5 19.9 7.9 39 7.7 WNW 11 26 6 14 1019.2 - 0.0
17/01:00pm 21.4 19.2 8.0 42 7.0 WSW 9 15 5 8 1019.5 1019.4 0.0
17/12:30pm 21.8 19.5 7.6 40 7.4 NNW 9 19 5 10 1019.9 - 0.0
17/12:00pm 20.9 18.5 6.8 40 7.2 WNW 9 15 5 8 1020.3 1020.2 0.0
17/11:30am 20.4 17.9 6.7 41 7.0 NW 9 17 5 9 1020.7 - 0.0
17/11:00am 19.8 18.9 10.5 55 5.1 SE 6 11 3 6 1020.8 1020.6 0.0
17/10:30am 18.5 17.4 10.1 58 4.5 S 6 9 3 5 1020.9 - 0.0
17/10:00am 17.3 17.0 10.2 63 3.8 ESE 2 4 1 2 1021.0 1020.8 0.0
17/09:30am 16.4 16.2 10.5 68 3.2 NNE 2 4 1 2 1021.1 - 0.0
17/09:00am 13.9 13.0 9.1 73 2.5 N 4 6 2 3 1021.2 1021.0 0.0
17/08:30am 11.4 9.8 8.1 80 1.6 N 6 7 3 4 1021.2 - 0.0
17/08:00am 9.5 7.7 7.8 89 0.8 N 7 9 4 5 1021.0 1020.8 0.0
17/07:30am 7.5 5.4 6.8 95 0.3 N 7 9 4 5 1020.7 - 0.0
17/07:00am 7.1 4.9 6.4 95 0.3 N 7 7 4 4 1020.2 1020.1 0.0
17/06:30am 7.2 5.3 6.6 96 0.3 N 6 7 3 4 1020.2 - 0.0
17/06:00am 7.2 4.7 6.5 95 0.3 N 9 9 5 5 1020.1 1020.0 0.0
17/05:30am 7.8 5.4 6.9 94 0.4 N 9 11 5 6 1020.0 - 0.0
17/05:00am 8.2 5.9 7.3 94 0.4 N 9 9 5 5 1019.9 1019.8 0.0
17/04:30am 8.3 6.0 7.5 95 0.4 N 9 11 5 6 1019.9 - 0.0
17/04:00am 8.1 5.8 7.3 95 0.4 NNW 9 11 5 6 1019.7 1019.6 0.0
17/03:30am 8.4 5.8 7.6 95 0.4 N 11 13 6 7 1019.6 - 0.0
17/03:00am 8.5 5.9 7.7 95 0.4 N 11 11 6 6 1019.6 1019.5 0.0
17/02:30am 8.6 6.4 7.8 95 0.4 N 9 11 5 6 1019.7 - 0.0
17/02:00am 8.8 6.6 7.9 94 0.4 NNW 9 9 5 5 1019.7 1019.6 0.0
17/01:30am 8.9 6.7 7.8 93 0.5 N 9 11 5 6 1019.8 - 0.0
17/01:00am 9.1 6.9 7.9 92 0.6 N 9 9 5 5 1019.7 1019.6 0.0
17/12:30am 9.6 6.7 8.0 90 0.8 N 13 15 7 8 1019.7 - 0.0
17/12:00am 10.0 7.5 8.3 89 0.8 N 11 15 6 8 1019.9 1019.8 0.0
 
Date/Time
EST
Tmp

°C
App
Tmp
°C
Dew
Point
°C
Rel
Hum
%
Delta-T

°C
Wind Press
QNH
hPa
Press
MSL
hPa
Rain
since
9 am
mm
Dir
 
Spd
km/h
Gust
km/h
Spd
kts
Gust
kts
16/11:30pm 9.7 7.7 8.5 92 0.6 N 9 11 5 6 1020.1 - 0.0
16/11:00pm 8.7 6.9 7.8 94 0.4 NNW 7 9 4 5 1020.5 1020.3 0.0
16/10:30pm 9.6 7.9 8.2 91 0.7 N 7 9 4 5 1020.0 - 0.0
16/10:00pm 9.9 8.2 8.3 90 0.8 N 7 9 4 5 1019.9 1019.8 0.0
16/09:30pm 10.5 8.9 8.8 89 0.8 N 7 7 4 4 1020.0 - 0.0
16/09:00pm 10.9 9.3 8.8 87 1.0 N 7 9 4 5 1020.0 1019.9 0.0
16/08:30pm 11.6 10.1 9.2 85 1.2 N 7 7 4 4 1019.9 - 0.0
16/08:00pm 12.4 11.2 9.6 83 1.4 N 6 7 3 4 1020.0 1019.9 0.0
16/07:30pm 12.9 11.7 9.7 81 1.7 NNW 6 7 3 4 1020.1 - 0.0
16/07:00pm 13.9 13.5 9.7 76 2.2 NNW 2 4 1 2 1019.9 1019.8 0.0
16/06:30pm 14.8 14.4 9.6 71 2.7 NNW 2 4 1 2 1019.6 - 0.0
16/06:00pm 15.3 14.9 9.7 69 2.9 S 2 4 1 2 1019.5 1019.4 0.0
16/05:30pm 16.4 14.6 9.6 64 3.6 SSW 9 15 5 8 1019.3 - 0.0
16/05:00pm 17.3 14.7 9.2 59 4.3 SW 13 20 7 11 1019.1 1019.0 0.0
16/04:30pm 18.3 16.7 8.8 54 5.0 W 7 15 4 8 1018.9 - 0.0
16/04:00pm 18.6 15.8 8.6 52 5.2 W 13 17 7 9 1018.9 1018.8 0.0
16/03:30pm 18.3 15.6 8.8 54 5.0 W 13 20 7 11 1018.9 - 0.0
16/03:00pm 18.6 16.6 8.8 53 5.1 NW 9 17 5 9 1019.0 1018.9 0.0
16/02:30pm 18.9 16.4 8.3 50 5.5 NW 11 19 6 10 1018.9 - 0.0
16/02:00pm 19.1 17.8 9.9 55 4.9 SSW 7 13 4 7 1018.8 1018.6 0.0
16/01:30pm 18.1 17.7 11.2 64 3.8 S 4 9 2 5 1019.0 - 0.0
16/01:00pm 17.4 16.5 11.4 68 3.3 S 7 13 4 7 1019.1 1019.0 0.0
16/12:30pm 17.5 16.2 11.3 67 3.4 SW 9 15 5 8 1019.6 - 0.0
16/12:00pm 17.4 16.7 11.9 70 3.0 SW 7 17 4 9 1020.0 1019.9 0.0
16/11:30am 17.0 16.1 11.3 69 3.1 S 7 11 4 6 1020.1 - 0.0
16/11:00am 16.6 15.9 11.3 71 2.9 SSW 6 9 3 5 1020.2 1020.1 0.0
16/10:30am 16.4 16.0 11.1 71 2.9 SE 4 7 2 4 1020.3 - 0.0
16/10:00am 15.2 14.8 11.2 77 2.2 ESE 4 7 2 4 1020.7 1020.5 0.0
16/09:30am 13.3 13.7 11.4 88 1.0 CALM 0 2 0 1 1021.0 - 0.0
16/09:00am 12.1 11.7 11.2 94 0.5 N 4 7 2 4 1021.3 1021.1 0.0
16/08:30am 11.2 10.7 10.9 98 0.2 N 4 6 2 3 1021.2 - 0.0
16/08:00am 10.9 10.1 10.9 100 0.0 N 6 9 3 5 1021.1 1020.9 0.0
16/07:30am 10.3 9.7 10.3 100 0.0 NNW 4 4 2 2 1020.9 - 0.0
16/07:00am 10.3 9.7 10.3 100 0.0 NW 4 4 2 2 1020.6 1020.4 0.0
16/06:30am 10.5 9.9 10.5 100 0.0 NW 4 6 2 3 1020.7 - 0.0
16/06:00am 10.5 10.3 10.5 100 0.0 NW 2 4 1 2 1020.7 1020.5 0.0
16/05:30am 10.7 10.9 10.7 100 0.0 CALM 0 0 0 0 1020.7 - 0.0
16/05:00am 10.8 10.3 10.8 100 0.0 WNW 4 6 2 3 1020.9 1020.7 0.0
16/04:30am 10.6 10.4 10.6 100 0.0 NW 2 2 1 1 1021.0 - 0.0
16/04:00am 10.1 9.0 10.1 100 0.0 NNW 6 6 3 3 1020.9 1020.7 0.0
16/03:30am 9.8 8.5 9.8 100 0.0 NNW 7 7 4 4 1020.7 - 0.0
16/03:00am 9.2 7.7 9.2 100 0.0 NNW 7 7 4 4 1020.7 1020.5 0.0
16/02:30am 8.7 7.1 8.7 100 0.0 N 7 9 4 5 1020.8 - 0.0
16/02:00am 8.9 7.5 8.8 99 0.0 NNW 6 7 3 4 1021.3 1021.1 0.0
16/01:30am 9.4 8.1 9.3 99 0.1 NNW 6 7 3 4 1021.7 - 0.0
16/01:00am 10.1 10.0 9.6 97 0.3 CALM 0 2 0 1 1022.0 1021.8 0.0
16/12:30am 10.9 11.0 10.1 95 0.4 CALM 0 4 0 2 1022.2 - 0.0
16/12:00am 11.6 11.8 10.7 94 0.5 CALM 0 4 0 2 1022.4 1022.2 0.0
 
Date/Time
EST
Tmp

°C
App
Tmp
°C
Dew
Point
°C
Rel
Hum
%
Delta-T

°C
Wind Press
QNH
hPa
Press
MSL
hPa
Rain
since
9 am
mm
Dir
 
Spd
km/h
Gust
km/h
Spd
kts
Gust
kts
15/11:30pm 12.4 12.4 11.1 92 0.7 N 2 4 1 2 1022.7 - 0.0
15/11:00pm 12.2 12.1 10.9 92 0.7 N 2 6 1 3 1022.9 1022.8 0.0
15/10:30pm 12.3 12.2 10.9 91 0.7 WNW 2 4 1 2 1023.1 - 0.0
15/10:00pm 12.5 12.7 10.7 89 0.9 CALM 0 4 0 2 1023.3 1023.2 0.0
15/09:30pm 12.8 12.3 10.7 87 1.1 SSW 4 6 2 3 1023.6 - 0.0
15/09:00pm 13.0 12.5 10.9 87 1.1 SSW 4 6 2 3 1023.7 1023.6 0.0
15/08:30pm 13.1 12.6 10.6 85 1.3 S 4 6 2 3 1023.6 - 0.0
15/08:00pm 13.3 12.7 10.5 83 1.5 S 4 7 2 4 1023.5 1023.4 0.0
15/07:30pm 13.2 12.2 10.4 83 1.5 SSE 6 9 3 5 1023.5 - 0.0
15/07:00pm 13.4 12.8 10.4 82 1.6 S 4 7 2 4 1023.4 1023.3 0.0
15/06:30pm 13.4 12.4 10.2 81 1.7 SSE 6 9 3 5 1023.1 - 0.0

Latest Capital City Observations: Canberra | Sydney | Melbourne | Brisbane | Adelaide | Perth | Hobart | Darwin

Other Formats:

Comma delimited format used in spreadsheet applications
http://www.bom.gov.au/fwo/IDV60901/IDV60901.94863.axf

JavaScript Object Notation format (JSON) in row-major order
http://www.bom.gov.au/fwo/IDV60901/IDV60901.94863.json